| time (UTC) | temp F | wind direction | speed MPH | gust MPH | rain 1hr in | rain 24hr in | rain mn in | humidity % | barometer mb |
| 20260509121003 | 54 | 0 | 1.0 | 0.0 | 0.00 | 0.00 | 0.00 | 60 | 1017.9 |
| 20260509120003 | 54 | 289 | 0.0 | 2.0 | 0.00 | 0.00 | 0.00 | 58 | 1017.8 |
| 20260509115504 | 54 | 289 | 0.0 | 1.0 | 0.00 | 0.00 | 0.00 | 58 | 1017.9 |
| 20260509115003 | 55 | 0 | 0.0 | 0.0 | 0.00 | 0.00 | 0.00 | 57 | 1017.8 |
| 20260509114503 | 55 | 0 | 0.0 | 0.0 | 0.00 | 0.00 | 0.00 | 57 | 1017.9 |
| 20260509114003 | 56 | 289 | 0.0 | 2.0 | 0.00 | 0.00 | 0.00 | 56 | 1017.9 |
| 20260509113503 | 56 | 292 | 0.0 | 1.0 | 0.00 | 0.00 | 0.00 | 57 | 1017.9 |
| 20260509113003 | 55 | 291 | 0.0 | 2.0 | 0.00 | 0.00 | 0.00 | 57 | 1017.9 |
| 20260509112503 | 55 | 289 | 0.0 | 1.0 | 0.00 | 0.00 | 0.00 | 56 | 1017.8 |
| 20260509112003 | 56 | 290 | 1.0 | 2.0 | 0.00 | 0.00 | 0.00 | 55 | 1017.9 |
| 20260509111002 | 56 | 278 | 0.0 | 2.0 | 0.00 | 0.00 | 0.00 | 54 | 1018.0 |
| 20260509110503 | 56 | 274 | 1.0 | 2.0 | 0.00 | 0.00 | 0.00 | 55 | 1018.1 |
| 20260509110003 | 56 | 268 | 1.0 | 2.0 | 0.00 | 0.00 | 0.00 | 54 | 1018.0 |
| 20260509105003 | 56 | 262 | 1.0 | 2.0 | 0.00 | 0.00 | 0.00 | 55 | 1018.1 |
| 20260509104502 | 54 | 249 | 1.0 | 3.0 | 0.00 | 0.00 | 0.00 | 55 | 1018.2 |
| 20260509103503 | 55 | 253 | 0.0 | 2.0 | 0.00 | 0.00 | 0.00 | 54 | 1018.2 |
| 20260509103003 | 56 | 0 | 0.0 | 0.0 | 0.00 | 0.00 | 0.00 | 54 | 1018.1 |
| 20260509102503 | 58 | 0 | 0.0 | 0.0 | 0.00 | 0.00 | 0.00 | 51 | 1018.1 |
| 20260509101502 | 59 | 233 | 2.0 | 4.0 | 0.00 | 0.00 | 0.00 | 50 | 1018.1 |
| 20260509101003 | 59 | 234 | 1.0 | 7.0 | 0.00 | 0.00 | 0.00 | 49 | 1018.2 |
| 20260509100502 | 60 | 228 | 1.0 | 3.0 | 0.00 | 0.00 | 0.00 | 48 | 1018.2 |
| 20260509095503 | 60 | 97 | 0.0 | 3.0 | 0.00 | 0.00 | 0.00 | 46 | 1018.2 |
| 20260509095003 | 59 | 82 | 0.0 | 2.0 | 0.00 | 0.00 | 0.00 | 47 | 1018.2 |
| 20260509094003 | 59 | 0 | 0.0 | 0.0 | 0.00 | 0.00 | 0.00 | 46 | 1018.4 |
| 20260509093503 | 59 | 0 | 0.0 | 0.0 | 0.00 | 0.00 | 0.00 | 45 | 1018.3 |
| 20260509093003 | 59 | 0 | 0.0 | 0.0 | 0.00 | 0.00 | 0.00 | 45 | 1018.3 |
| 20260509092503 | 60 | 0 | 0.0 | 0.0 | 0.00 | 0.00 | 0.00 | 43 | 1018.3 |
| 20260509092002 | 60 | 57 | 0.0 | 1.0 | 0.00 | 0.00 | 0.00 | 43 | 1018.3 |
| 20260509091503 | 60 | 0 | 0.0 | 0.0 | 0.00 | 0.00 | 0.00 | 43 | 1018.4 |
| 20260509091002 | 60 | 66 | 0.0 | 2.0 | 0.00 | 0.00 | 0.00 | 42 | 1018.4 |
| 20260509090003 | 61 | 78 | 0.0 | 2.0 | 0.00 | 0.00 | 0.00 | 42 | 1018.4 |
| 20260509085503 | 60 | 0 | 0.0 | 0.0 | 0.00 | 0.00 | 0.00 | 41 | 1018.4 |
| 20260509085003 | 60 | 0 | 0.0 | 0.0 | 0.00 | 0.00 | 0.00 | 41 | 1018.4 |
| 20260509084503 | 60 | 0 | 0.0 | 0.0 | 0.00 | 0.00 | 0.00 | 42 | 1018.4 |
| 20260509084002 | 60 | 4 | 0.0 | 2.0 | 0.00 | 0.00 | 0.00 | 41 | 1018.4 |
| 20260509083503 | 60 | 7 | 0.0 | 3.0 | 0.00 | 0.00 | 0.00 | 41 | 1018.4 |
| 20260509083002 | 60 | 20 | 0.0 | 1.0 | 0.00 | 0.00 | 0.00 | 43 | 1018.4 |
| 20260509082504 | 60 | 15 | 1.0 | 2.0 | 0.00 | 0.00 | 0.00 | 44 | 1018.5 |
| 20260509082003 | 60 | 5 | 1.0 | 2.0 | 0.00 | 0.00 | 0.00 | 44 | 1018.5 |
| 20260509081003 | 61 | 321 | 0.0 | 1.0 | 0.00 | 0.00 | 0.00 | 40 | 1018.5 |
| 20260509080004 | 60 | 0 | 0.0 | 0.0 | 0.00 | 0.00 | 0.00 | 43 | 1018.7 |
| 20260509075503 | 60 | 0 | 1.0 | 0.0 | 0.00 | 0.00 | 0.00 | 42 | 1018.7 |
| 20260509074502 | 61 | 226 | 2.0 | 4.0 | 0.00 | 0.00 | 0.00 | 42 | 1018.8 |
| 20260509074003 | 61 | 227 | 3.0 | 4.0 | 0.00 | 0.00 | 0.00 | 42 | 1018.8 |
| 20260509073503 | 62 | 291 | 2.0 | 4.0 | 0.00 | 0.00 | 0.00 | 41 | 1018.8 |
| 20260509073003 | 62 | 247 | 2.0 | 5.0 | 0.00 | 0.00 | 0.00 | 40 | 1018.9 |
| 20260509071504 | 61 | 244 | 2.0 | 3.0 | 0.00 | 0.00 | 0.00 | 43 | 1018.9 |
| 20260509071003 | 61 | 244 | 2.0 | 3.0 | 0.00 | 0.00 | 0.00 | 44 | 1018.9 |
| 20260509070503 | 61 | 256 | 2.0 | 3.0 | 0.00 | 0.00 | 0.00 | 44 | 1018.9 |
| 20260509070004 | 60 | 249 | 1.0 | 3.0 | 0.00 | 0.00 | 0.00 | 42 | 1018.9 |
| 20260509065003 | 61 | 0 | 1.0 | 0.0 | 0.00 | 0.00 | 0.00 | 46 | 1019.1 |
| 20260509064503 | 61 | 0 | 0.0 | 0.0 | 0.00 | 0.00 | 0.00 | 44 | 1019.0 |
| 20260509064003 | 61 | 223 | 1.0 | 3.0 | 0.00 | 0.00 | 0.00 | 44 | 1018.9 |
| 20260509063503 | 61 | 262 | 2.0 | 2.0 | 0.00 | 0.00 | 0.00 | 43 | 1019.0 |
| 20260509063003 | 61 | 262 | 3.0 | 2.0 | 0.00 | 0.00 | 0.00 | 42 | 1018.9 |
| 20260509062503 | 61 | 263 | 3.0 | 4.0 | 0.00 | 0.00 | 0.00 | 44 | 1018.9 |
| 20260509062003 | 62 | 264 | 3.0 | 6.0 | 0.00 | 0.00 | 0.00 | 45 | 1019.0 |
| 20260509061503 | 62 | 266 | 3.0 | 4.0 | 0.00 | 0.00 | 0.00 | 47 | 1019.1 |
| 20260509061003 | 62 | 265 | 2.0 | 4.0 | 0.00 | 0.00 | 0.00 | 47 | 1019.2 |
| 20260509060503 | 62 | 252 | 2.0 | 6.0 | 0.00 | 0.00 | 0.00 | 47 | 1019.1 |
| 20260509060005 | 62 | 249 | 3.0 | 3.0 | 0.00 | 0.00 | 0.00 | 47 | 1019.0 |
| 20260509055503 | 63 | 264 | 3.0 | 3.0 | 0.00 | 0.00 | 0.00 | 47 | 1019.1 |
| 20260509055004 | 63 | 265 | 2.0 | 6.0 | 0.00 | 0.00 | 0.00 | 47 | 1019.0 |
| 20260509054503 | 64 | 273 | 1.0 | 4.0 | 0.00 | 0.00 | 0.00 | 46 | 1019.1 |
| 20260509053503 | 64 | 284 | 0.0 | 1.0 | 0.00 | 0.00 | 0.00 | 45 | 1019.2 |
| 20260509053003 | 64 | 0 | 2.0 | 0.0 | 0.00 | 0.00 | 0.00 | 43 | 1019.2 |
| 20260509052003 | 64 | 280 | 4.0 | 4.0 | 0.00 | 0.00 | 0.00 | 42 | 1019.1 |
| 20260509051503 | 64 | 277 | 4.0 | 6.0 | 0.00 | 0.00 | 0.00 | 43 | 1019.2 |
| 20260509050003 | 64 | 277 | 6.0 | 6.0 | 0.00 | 0.00 | 0.00 | 44 | 1019.1 |
| 20260509045503 | 64 | 280 | 7.0 | 7.0 | 0.00 | 0.00 | 0.00 | 44 | 1019.1 |
| 20260509045003 | 64 | 270 | 6.0 | 10.0 | 0.00 | 0.00 | 0.00 | 44 | 1019.0 |
| 20260509043503 | 64 | 279 | 6.0 | 8.0 | 0.00 | 0.00 | 0.00 | 48 | 1019.0 |
| 20260509043003 | 65 | 276 | 7.0 | 7.0 | 0.00 | 0.00 | 0.00 | 49 | 1019.0 |
| 20260509042503 | 65 | 267 | 6.0 | 11.0 | 0.00 | 0.00 | 0.00 | 49 | 1018.9 |
| 20260509042003 | 65 | 274 | 5.0 | 9.0 | 0.00 | 0.00 | 0.00 | 49 | 1018.9 |
| 20260509041003 | 65 | 279 | 4.0 | 7.0 | 0.00 | 0.00 | 0.00 | 49 | 1018.9 |
| 20260509040503 | 66 | 257 | 2.0 | 9.0 | 0.00 | 0.00 | 0.00 | 49 | 1018.8 |
| 20260509040004 | 66 | 266 | 1.0 | 4.0 | 0.00 | 0.00 | 0.00 | 49 | 1018.7 |
| 20260509035503 | 66 | 0 | 1.0 | 0.0 | 0.00 | 0.00 | 0.00 | 48 | 1018.7 |
| 20260509035003 | 66 | 259 | 3.0 | 3.0 | 0.00 | 0.00 | 0.00 | 48 | 1018.7 |
| 20260509034503 | 66 | 263 | 4.0 | 7.0 | 0.00 | 0.00 | 0.00 | 48 | 1018.6 |
| 20260509034003 | 66 | 252 | 4.0 | 5.0 | 0.00 | 0.00 | 0.00 | 48 | 1018.7 |
| 20260509033503 | 66 | 251 | 5.0 | 7.0 | 0.00 | 0.00 | 0.00 | 48 | 1018.7 |
| 20260509033003 | 67 | 252 | 4.0 | 9.0 | 0.00 | 0.00 | 0.00 | 48 | 1018.6 |
| 20260509032503 | 67 | 271 | 3.0 | 10.0 | 0.00 | 0.00 | 0.00 | 48 | 1018.5 |
| 20260509032004 | 67 | 292 | 3.0 | 4.0 | 0.00 | 0.00 | 0.00 | 48 | 1018.4 |
| 20260509031504 | 67 | 259 | 5.0 | 5.0 | 0.00 | 0.00 | 0.00 | 48 | 1018.4 |
| 20260509031003 | 67 | 254 | 6.0 | 8.0 | 0.00 | 0.00 | 0.00 | 48 | 1018.4 |
| 20260509030503 | 67 | 259 | 5.0 | 12.0 | 0.00 | 0.00 | 0.00 | 48 | 1018.3 |
| 20260509025504 | 68 | 249 | 6.0 | 7.0 | 0.00 | 0.00 | 0.00 | 47 | 1018.2 |
| 20260509025003 | 68 | 239 | 5.0 | 12.0 | 0.00 | 0.00 | 0.00 | 47 | 1018.1 |
| 20260509024503 | 68 | 257 | 6.0 | 8.0 | 0.00 | 0.00 | 0.00 | 47 | 1018.2 |
| 20260509024003 | 68 | 254 | 7.0 | 11.0 | 0.00 | 0.00 | 0.00 | 47 | 1018.1 |
| 20260509023503 | 69 | 245 | 6.0 | 11.0 | 0.00 | 0.00 | 0.00 | 46 | 1018.0 |
| 20260509023003 | 69 | 250 | 6.0 | 8.0 | 0.00 | 0.00 | 0.00 | 46 | 1018.0 |
| 20260509022503 | 70 | 235 | 7.0 | 10.0 | 0.00 | 0.00 | 0.00 | 45 | 1018.0 |
| 20260509022003 | 70 | 243 | 6.0 | 11.0 | 0.00 | 0.00 | 0.00 | 45 | 1018.0 |
| 20260509021503 | 71 | 244 | 6.0 | 10.0 | 0.00 | 0.00 | 0.00 | 44 | 1017.9 |
| 20260509021003 | 71 | 242 | 7.0 | 9.0 | 0.00 | 0.00 | 0.00 | 44 | 1017.9 |
| 20260509020004 | 73 | 256 | 8.0 | 12.0 | 0.00 | 0.00 | 0.00 | 42 | 1017.8 |
| 20260509015503 | 73 | 247 | 7.0 | 12.0 | 0.00 | 0.00 | 0.00 | 42 | 1017.9 |
| 20260509015003 | 74 | 258 | 5.0 | 11.0 | 0.00 | 0.00 | 0.00 | 42 | 1017.8 |
| 20260509014503 | 74 | 269 | 6.0 | 8.0 | 0.00 | 0.00 | 0.00 | 42 | 1017.8 |
| 20260509014003 | 74 | 302 | 8.0 | 9.0 | 0.00 | 0.00 | 0.00 | 40 | 1017.8 |
| 20260509013003 | 74 | 280 | 8.0 | 11.0 | 0.00 | 0.00 | 0.00 | 39 | 1017.7 |
| 20260509012503 | 74 | 292 | 9.0 | 11.0 | 0.00 | 0.00 | 0.00 | 39 | 1017.6 |
| 20260509012004 | 74 | 289 | 9.0 | 11.0 | 0.00 | 0.00 | 0.00 | 39 | 1017.6 |
| 20260509011505 | 74 | 277 | 9.0 | 17.0 | 0.00 | 0.00 | 0.00 | 39 | 1017.7 |
| 20260509011004 | 74 | 294 | 10.0 | 13.0 | 0.00 | 0.00 | 0.00 | 40 | 1017.7 |
| 20260509010504 | 75 | 282 | 9.0 | 15.0 | 0.00 | 0.00 | 0.00 | 39 | 1017.7 |
| 20260509010003 | 75 | 270 | 7.0 | 18.0 | 0.00 | 0.00 | 0.00 | 39 | 1017.7 |
| 20260509005503 | 75 | 284 | 8.0 | 11.0 | 0.00 | 0.00 | 0.00 | 40 | 1017.9 |
| 20260509003503 | 75 | 314 | 10.0 | 16.0 | 0.00 | 0.00 | 0.00 | 41 | 1017.9 |
| 20260509003003 | 75 | 315 | 11.0 | 18.0 | 0.00 | 0.00 | 0.00 | 41 | 1017.9 |
| 20260509002503 | 74 | 310 | 12.0 | 13.0 | 0.00 | 0.00 | 0.00 | 41 | 1017.9 |
| 20260509002003 | 74 | 303 | 12.0 | 19.0 | 0.00 | 0.00 | 0.00 | 40 | 1017.8 |
| 20260509001003 | 75 | 318 | 11.0 | 17.0 | 0.00 | 0.00 | 0.00 | 41 | 1017.9 |
| 20260509000503 | 75 | 323 | 11.0 | 19.0 | 0.00 | 0.00 | 0.00 | 42 | 1017.9 |
| 20260509000004 | 74 | 310 | 12.0 | 14.0 | 0.00 | 0.00 | 0.00 | 42 | 1017.9 |
| 20260508235503 | 74 | 317 | 12.0 | 15.0 | 0.00 | 0.00 | 0.00 | 42 | 1017.9 |
| 20260508235003 | 75 | 310 | 12.0 | 18.0 | 0.00 | 0.00 | 0.00 | 41 | 1017.9 |
| 20260508234504 | 74 | 315 | 12.0 | 17.0 | 0.00 | 0.00 | 0.00 | 42 | 1017.9 |
| 20260508234003 | 74 | 321 | 11.0 | 20.0 | 0.00 | 0.00 | 0.00 | 41 | 1018.1 |
| 20260508233503 | 74 | 310 | 12.0 | 19.0 | 0.00 | 0.00 | 0.00 | 43 | 1018.0 |
| 20260508232503 | 74 | 315 | 14.0 | 19.0 | 0.00 | 0.00 | 0.00 | 42 | 1018.1 |
| 20260508232004 | 74 | 312 | 13.0 | 20.0 | 0.00 | 0.00 | 0.00 | 42 | 1018.1 |
| 20260508231503 | 74 | 310 | 12.0 | 19.0 | 0.00 | 0.00 | 0.00 | 41 | 1018.3 |
| 20260508231003 | 74 | 314 | 12.0 | 17.0 | 0.00 | 0.00 | 0.00 | 42 | 1018.3 |
| 20260508230504 | 74 | 320 | 12.0 | 22.0 | 0.00 | 0.00 | 0.00 | 42 | 1018.4 |
| 20260508230003 | 74 | 297 | 13.0 | 15.0 | 0.00 | 0.00 | 0.00 | 42 | 1018.4 |
| 20260508225504 | 74 | 299 | 14.0 | 18.0 | 0.00 | 0.00 | 0.00 | 43 | 1018.3 |
| 20260508224503 | 74 | 319 | 12.0 | 20.0 | 0.00 | 0.00 | 0.00 | 43 | 1018.4 |
| 20260508224003 | 74 | 318 | 12.0 | 19.0 | 0.00 | 0.00 | 0.00 | 45 | 1018.4 |
| 20260508223504 | 74 | 311 | 12.0 | 18.0 | 0.00 | 0.00 | 0.00 | 45 | 1018.4 |
| 20260508223003 | 73 | 310 | 12.0 | 16.0 | 0.00 | 0.00 | 0.00 | 46 | 1018.5 |
| 20260508222504 | 74 | 320 | 11.0 | 18.0 | 0.00 | 0.00 | 0.00 | 46 | 1018.4 |
| 20260508222003 | 74 | 318 | 11.0 | 19.0 | 0.00 | 0.00 | 0.00 | 45 | 1018.5 |
| 20260508221504 | 74 | 309 | 10.0 | 15.0 | 0.00 | 0.00 | 0.00 | 46 | 1018.7 |
| 20260508221004 | 74 | 311 | 8.0 | 19.0 | 0.00 | 0.00 | 0.00 | 46 | 1018.7 |
| 20260508220503 | 73 | 324 | 10.0 | 11.0 | 0.00 | 0.00 | 0.00 | 49 | 1019.0 |
| 20260508220004 | 73 | 312 | 12.0 | 17.0 | 0.00 | 0.00 | 0.00 | 48 | 1018.9 |
| 20260508215503 | 73 | 315 | 13.0 | 16.0 | 0.00 | 0.00 | 0.00 | 48 | 1018.8 |
| 20260508214504 | 72 | 317 | 13.0 | 18.0 | 0.00 | 0.00 | 0.00 | 50 | 1019.0 |
| 20260508214003 | 72 | 307 | 12.0 | 19.0 | 0.00 | 0.00 | 0.00 | 51 | 1019.1 |
| 20260508213504 | 72 | 317 | 12.0 | 19.0 | 0.00 | 0.00 | 0.00 | 52 | 1019.0 |
| 20260508213003 | 72 | 307 | 12.0 | 18.0 | 0.00 | 0.00 | 0.00 | 51 | 1019.2 |
| 20260508212502 | 72 | 310 | 12.0 | 16.0 | 0.00 | 0.00 | 0.00 | 52 | 1019.2 |
| 20260508212002 | 73 | 308 | 11.0 | 16.0 | 0.00 | 0.00 | 0.00 | 52 | 1019.2 |
| 20260508211502 | 72 | 303 | 11.0 | 18.0 | 0.00 | 0.00 | 0.00 | 52 | 1019.2 |
| 20260508211003 | 72 | 304 | 12.0 | 17.0 | 0.00 | 0.00 | 0.00 | 53 | 1019.3 |
| 20260508210502 | 72 | 318 | 12.0 | 16.0 | 0.00 | 0.00 | 0.00 | 52 | 1019.3 |
| 20260508210002 | 72 | 302 | 13.0 | 18.0 | 0.00 | 0.00 | 0.00 | 52 | 1019.4 |
| 20260508205002 | 72 | 319 | 14.0 | 18.0 | 0.00 | 0.00 | 0.00 | 53 | 1019.4 |
| 20260508204502 | 72 | 319 | 13.0 | 21.0 | 0.00 | 0.00 | 0.00 | 53 | 1019.6 |
| 20260508204002 | 72 | 307 | 12.0 | 19.0 | 0.00 | 0.00 | 0.00 | 53 | 1019.5 |
| 20260508203504 | 72 | 317 | 12.0 | 17.0 | 0.00 | 0.00 | 0.00 | 54 | 1019.5 |
| 20260508203002 | 71 | 315 | 12.0 | 18.0 | 0.00 | 0.00 | 0.00 | 54 | 1019.6 |
| 20260508202502 | 72 | 314 | 13.0 | 20.0 | 0.00 | 0.00 | 0.00 | 54 | 1019.5 |
| 20260508201502 | 72 | 308 | 11.0 | 17.0 | 0.00 | 0.00 | 0.00 | 54 | 1019.5 |
| 20260508201002 | 72 | 307 | 12.0 | 18.0 | 0.00 | 0.00 | 0.00 | 54 | 1019.6 |
| 20260508200502 | 72 | 314 | 12.0 | 16.0 | 0.00 | 0.00 | 0.00 | 54 | 1019.5 |
| 20260508200002 | 72 | 318 | 11.0 | 20.0 | 0.00 | 0.00 | 0.00 | 54 | 1019.6 |
| 20260508195502 | 71 | 302 | 12.0 | 15.0 | 0.00 | 0.00 | 0.00 | 53 | 1019.7 |
| 20260508195002 | 71 | 315 | 13.0 | 18.0 | 0.00 | 0.00 | 0.00 | 54 | 1019.7 |
| 20260508194503 | 71 | 321 | 13.0 | 19.0 | 0.00 | 0.00 | 0.00 | 52 | 1019.6 |
| 20260508194002 | 72 | 313 | 12.0 | 20.0 | 0.00 | 0.00 | 0.00 | 51 | 1019.7 |
| 20260508193502 | 72 | 313 | 12.0 | 20.0 | 0.00 | 0.00 | 0.00 | 49 | 1019.5 |
| 20260508193003 | 72 | 307 | 13.0 | 17.0 | 0.00 | 0.00 | 0.00 | 50 | 1019.7 |
| 20260508192502 | 72 | 318 | 12.0 | 17.0 | 0.00 | 0.00 | 0.00 | 49 | 1019.6 |
| 20260508192003 | 72 | 320 | 11.0 | 17.0 | 0.00 | 0.00 | 0.00 | 51 | 1019.8 |
| 20260508191002 | 71 | 312 | 11.0 | 16.0 | 0.00 | 0.00 | 0.00 | 52 | 1019.8 |
| 20260508190502 | 71 | 317 | 12.0 | 16.0 | 0.00 | 0.00 | 0.00 | 53 | 1019.9 |
| 20260508190003 | 71 | 318 | 12.0 | 20.0 | 0.00 | 0.00 | 0.00 | 53 | 1020.0 |
| 20260508185504 | 71 | 320 | 11.0 | 17.0 | 0.00 | 0.00 | 0.00 | 52 | 1019.9 |
| 20260508185002 | 71 | 314 | 11.0 | 19.0 | 0.00 | 0.00 | 0.00 | 53 | 1020.0 |
| 20260508184502 | 71 | 312 | 10.0 | 17.0 | 0.00 | 0.00 | 0.00 | 54 | 1020.2 |
| 20260508184002 | 71 | 316 | 11.0 | 17.0 | 0.00 | 0.00 | 0.00 | 54 | 1020.2 |
| 20260508183503 | 71 | 313 | 11.0 | 13.0 | 0.00 | 0.00 | 0.00 | 55 | 1020.2 |
| 20260508183002 | 71 | 316 | 11.0 | 16.0 | 0.00 | 0.00 | 0.00 | 55 | 1020.3 |
| 20260508182503 | 71 | 318 | 10.0 | 14.0 | 0.00 | 0.00 | 0.00 | 55 | 1020.3 |
| 20260508182003 | 71 | 319 | 7.0 | 15.0 | 0.00 | 0.00 | 0.00 | 55 | 1020.4 |
| 20260508181504 | 70 | 302 | 6.0 | 13.0 | 0.00 | 0.00 | 0.00 | 57 | 1020.2 |
| 20260508181003 | 70 | 320 | 6.0 | 12.0 | 0.00 | 0.00 | 0.00 | 55 | 1020.2 |
| 20260508180502 | 69 | 322 | 7.0 | 12.0 | 0.00 | 0.00 | 0.00 | 60 | 1020.2 |
| 20260508180002 | 69 | 324 | 8.0 | 12.0 | 0.00 | 0.00 | 0.00 | 62 | 1020.2 |
| 20260508174502 | 68 | 316 | 7.0 | 13.0 | 0.00 | 0.00 | 0.00 | 64 | 1020.3 |
| 20260508174002 | 68 | 322 | 7.0 | 13.0 | 0.00 | 0.00 | 0.00 | 65 | 1020.5 |
| 20260508173503 | 68 | 327 | 6.0 | 13.0 | 0.00 | 0.00 | 0.00 | 64 | 1020.4 |
| 20260508173003 | 68 | 332 | 7.0 | 9.0 | 0.00 | 0.00 | 0.00 | 65 | 1020.4 |
| 20260508172502 | 68 | 323 | 7.0 | 12.0 | 0.00 | 0.00 | 0.00 | 64 | 1020.4 |
| 20260508171502 | 67 | 324 | 7.0 | 12.0 | 0.00 | 0.00 | 0.00 | 64 | 1020.3 |
| 20260508171003 | 67 | 324 | 5.0 | 11.0 | 0.00 | 0.00 | 0.00 | 63 | 1020.4 |
| 20260508170502 | 67 | 334 | 5.0 | 8.0 | 0.00 | 0.00 | 0.00 | 62 | 1020.4 |
| 20260508170002 | 67 | 326 | 6.0 | 10.0 | 0.00 | 0.00 | 0.00 | 61 | 1020.5 |
| 20260508165502 | 67 | 327 | 6.0 | 10.0 | 0.00 | 0.00 | 0.00 | 61 | 1020.5 |
| 20260508165003 | 67 | 324 | 5.0 | 10.0 | 0.00 | 0.00 | 0.00 | 62 | 1020.5 |
| 20260508164502 | 67 | 322 | 5.0 | 11.0 | 0.00 | 0.00 | 0.00 | 61 | 1020.6 |
| 20260508164002 | 67 | 324 | 6.0 | 8.0 | 0.00 | 0.00 | 0.00 | 60 | 1020.5 |
| 20260508163503 | 67 | 319 | 5.0 | 12.0 | 0.00 | 0.00 | 0.00 | 60 | 1020.5 |
| 20260508163004 | 67 | 326 | 5.0 | 10.0 | 0.00 | 0.00 | 0.00 | 60 | 1020.5 |
| 20260508162502 | 66 | 323 | 4.0 | 9.0 | 0.00 | 0.00 | 0.00 | 61 | 1020.6 |
| 20260508162003 | 66 | 321 | 4.0 | 10.0 | 0.00 | 0.00 | 0.00 | 63 | 1020.6 |
| 20260508161502 | 66 | 323 | 4.0 | 5.0 | 0.00 | 0.00 | 0.00 | 63 | 1020.7 |
| 20260508161003 | 66 | 326 | 3.0 | 9.0 | 0.00 | 0.00 | 0.00 | 64 | 1020.7 |
| 20260508160503 | 65 | 350 | 3.0 | 5.0 | 0.00 | 0.00 | 0.00 | 64 | 1020.7 |
| 20260508160003 | 65 | 328 | 3.0 | 6.0 | 0.00 | 0.00 | 0.00 | 66 | 1020.8 |
| 20260508155502 | 65 | 331 | 1.0 | 6.0 | 0.00 | 0.00 | 0.00 | 67 | 1020.8 |
| 20260508155003 | 64 | 322 | 1.0 | 5.0 | 0.00 | 0.00 | 0.00 | 68 | 1020.8 |
| 20260508154503 | 64 | 318 | 1.0 | 4.0 | 0.00 | 0.00 | 0.00 | 69 | 1020.8 |
| 20260508154002 | 64 | 326 | 2.0 | 2.0 | 0.00 | 0.00 | 0.00 | 71 | 1020.8 |
| 20260508153502 | 63 | 322 | 2.0 | 4.0 | 0.00 | 0.00 | 0.00 | 71 | 1020.8 |
| 20260508152503 | 63 | 330 | 3.0 | 4.0 | 0.00 | 0.00 | 0.00 | 73 | 1020.9 |
| 20260508152002 | 62 | 330 | 2.0 | 5.0 | 0.00 | 0.00 | 0.00 | 74 | 1020.9 |
| 20260508151504 | 62 | 336 | 2.0 | 3.0 | 0.00 | 0.00 | 0.00 | 76 | 1020.9 |
| 20260508151002 | 61 | 341 | 1.0 | 3.0 | 0.00 | 0.00 | 0.00 | 78 | 1021.0 |
| 20260508150004 | 60 | 5 | 1.0 | 2.0 | 0.00 | 0.00 | 0.00 | 80 | 1021.1 |
| 20260508145502 | 59 | 6 | 1.0 | 3.0 | 0.00 | 0.00 | 0.00 | 81 | 1020.9 |
| 20260508145003 | 59 | 29 | 0.0 | 2.0 | 0.00 | 0.00 | 0.00 | 82 | 1020.9 |
| 20260508144502 | 58 | 32 | 1.0 | 2.0 | 0.00 | 0.00 | 0.00 | 82 | 1020.9 |
| 20260508144003 | 58 | 33 | 1.0 | 3.0 | 0.00 | 0.00 | 0.00 | 83 | 1020.8 |
| 20260508143503 | 57 | 35 | 1.0 | 2.0 | 0.00 | 0.00 | 0.00 | 84 | 1020.7 |
| 20260508143003 | 56 | 26 | 1.0 | 3.0 | 0.00 | 0.00 | 0.00 | 84 | 1020.7 |
| 20260508142002 | 56 | 279 | 0.0 | 1.0 | 0.00 | 0.00 | 0.00 | 85 | 1020.7 |
| 20260508141502 | 56 | 277 | 0.0 | 2.0 | 0.00 | 0.00 | 0.00 | 85 | 1020.7 |
| 20260508141003 | 56 | 0 | 0.0 | 0.0 | 0.00 | 0.00 | 0.00 | 85 | 1020.7 |
| 20260508140503 | 55 | 276 | 0.0 | 2.0 | 0.00 | 0.00 | 0.00 | 85 | 1020.6 |
| 20260508140004 | 55 | 0 | 0.0 | 0.0 | 0.00 | 0.00 | 0.00 | 85 | 1020.5 |
| 20260508133503 | 55 | 0 | 0.0 | 0.0 | 0.00 | 0.00 | 0.00 | 83 | 1020.4 |
| 20260508132503 | 55 | 0 | 0.0 | 0.0 | 0.00 | 0.00 | 0.00 | 82 | 1020.4 |
| 20260508132003 | 55 | 0 | 0.0 | 0.0 | 0.00 | 0.00 | 0.00 | 82 | 1020.4 |
| 20260508131502 | 55 | 0 | 0.0 | 0.0 | 0.00 | 0.00 | 0.00 | 82 | 1020.4 |
| 20260508130504 | 55 | 0 | 0.0 | 0.0 | 0.00 | 0.00 | 0.00 | 81 | 1020.4 |
| 20260508130002 | 55 | 0 | 0.0 | 0.0 | 0.00 | 0.00 | 0.00 | 82 | 1020.4 |
| 20260508125503 | 55 | 0 | 0.0 | 0.0 | 0.00 | 0.00 | 0.00 | 81 | 1020.2 |
| 20260508125002 | 55 | 276 | 0.0 | 1.0 | 0.00 | 0.00 | 0.00 | 81 | 1020.2 |
| 20260508124503 | 56 | 278 | 0.0 | 1.0 | 0.00 | 0.00 | 0.00 | 80 | 1020.2 |
| 20260508124002 | 56 | 279 | 0.0 | 1.0 | 0.00 | 0.00 | 0.00 | 80 | 1020.1 |
| 20260508123502 | 56 | 279 | 0.0 | 1.0 | 0.00 | 0.00 | 0.00 | 79 | 1020.0 |
| 20260508123003 | 56 | 0 | 0.0 | 0.0 | 0.00 | 0.00 | 0.00 | 79 | 1019.9 |
| 20260508122502 | 56 | 0 | 0.0 | 0.0 | 0.00 | 0.00 | 0.00 | 80 | 1019.9 |
| 20260508122003 | 56 | 279 | 0.0 | 1.0 | 0.00 | 0.00 | 0.00 | 80 | 1019.9 |
| 20260508121503 | 56 | 279 | 0.0 | 1.0 | 0.00 | 0.00 | 0.00 | 80 | 1020.0 |